Wind_Speed
29 25 22 20 13 14 13 16 20 24 17 16 16 16 17 25 28 31 37 39 39 48 54 51 52 52 56 61 64 70 77 82 83 92 99 101 80 80 75 60 50 38 22
34 28 24 21 16 15 18 20 21 18 17 16 16 18 16 20 24 25 31 35 39 42 51 52 49 54 53 56 57 68 74 79 84 85 94 99 83 75 82 63 58 49 33
38 33 31 30 26 23 21 21 21 22 19 18 13 14 15 18 25 26 26 27 33 38 46 48 50 52 52 53 51 64 68 79 82 88 86 92 90 68 77 64 64 60 48
48 45 41 39 35 30 26 24 23 25 22 18 10 10 14 23 26 29 19 23 24 29 38 45 49 50 52 52 48 55 59 68 73 79 86 86 90 82 66 65 63 59 52
50 51 44 43 39 38 29 27 29 25 24 21 9 14 25 27 27 29 19 18 19 26 36 41 45 48 53 50 47 49 55 60 66 73 79 82 83 84 70 55 55 52 44
56 55 51 49 42 41 35 33 28 28 30 25 22 16 23 32 29 28 23 12 19 20 29 34 42 50 55 51 45 44 44 53 56 65 72 78 81 79 78 55 44 43 39
54 70 64 56 45 52 49 39 35 34 31 30 28 29 33 37 33 27 16 11 20 25 24 22 36 44 52 52 46 42 42 42 49 58 61 66 72 78 74 74 48 34 28
65 59 65 73 71 64 55 51 45 39 38 33 32 30 36 36 38 35 28 24 24 23 13 20 35 39 48 54 52 48 39 36 40 47 52 59 62 65 73 72 66 49 24
74 68 62 63 64 67 63 61 56 49 38 36 32 30 32 22 23 22 30 26 25 28 21 28 37 36 41 49 52 49 44 35 37 40 43 50 54 59 61 71 66 61 47
78 74 78 75 68 64 63 64 58 51 37 34 34 24 23 8 4 14 46 39 32 28 29 35 38 38 41 48 53 46 38 38 35 34 36 43 46 49 53 61 64 60 53
77 77 71 63 64 60 60 60 55 50 42 40 35 26 22 12 17 22 33 44 41 38 35 44 44 39 35 45 51 48 41 33 33 30 29 35 39 40 44 51 59 59 54
78 75 77 76 73 64 64 63 54 56 48 47 39 37 29 34 27 32 49 45 47 42 44 40 43 42 34 43 43 47 44 39 31 32 27 26 31 35 38 42 51 54 49
83 74 70 79 76 77 68 65 66 63 59 59 49 32 20 19 33 31 37 34 34 36 45 51 47 43 42 41 34 41 49 44 36 33 34 23 22 26 27 35 42 46 48
80 83 80 86 76 75 70 64 61 59 63 65 57 50 52 46 37 40 46 50 38 38 45 48 53 49 51 42 32 32 44 48 51 48 34 31 27 18 23 30 33 36 42
79 89 86 91 78 78 81 69 69 69 66 59 68 68 68 65 55 59 61 58 56 56 56 55 52 55 52 58 50 37 37 48 54 58 53 35 29 24 14 20 26 31 32
97 84 87 93 88 86 82 76 78 72 69 70 73 74 73 70 62 57 65 56 55 54 57 53 47 59 66 62 61 49 48 57 60 63 57 53 38 29 17 15 19 24 28
118 108 100 86 90 94 95 96 95 83 81 81 79 83 85 81 72 69 67 71 74 71 68 72 73 69 70 70 61 50 56 64 70 63 65 61 49 34 23 11 15 15 22
123 120 116 114 110 99 92 90 91 103 104 97 89 78 80 85 84 77 73 68 73 77 83 81 80 72 66 68 63 69 76 77 73 72 66 62 58 47 35 18 15 18 17
115 123 123 123 123 118 113 102 92 92 95 97 95 96 93 90 88 87 86 88 86 86 85 85 84 86 87 85 87 90 86 81 78 78 76 62 60 49 42 28 20 20 20
107 114 121 123 124 121 121 121 119 102 100 99 104 109 106 101 95 97 95 95 93 93 94 92 92 93 92 91 91 86 84 83 84 87 82 68 59 49 45 41 32 27 27
102 106 115 119 121 123 121 120 118 117 118 114 111 111 112 111 111 110 105 103 102 102 100 100 102 100 100 98 97 94 88 81 76 76 68 59 59 51 48 45 39 33 35
98 99 105 112 115 117 117 117 118 120 121 122 121 117 116 115 113 112 110 111 111 110 108 105 108 108 108 106 102 97 96 86 77 72 73 64 61 58 54 47 40 39 40
90 95 96 100 105 110 111 110 109 108 106 110 114 115 117 118 118 116 114 112 111 111 110 110 109 107 106 108 105 102 97 90 86 78 70 73 71 66 61 55 47 45 44
71 80 86 87 95 101 101 106 110 105 100 99 99 100 103 104 106 107 109 110 108 108 107 107 107 107 108 108 105 101 99 93 89 86 77 72 69 68 59 56 50 47 50
50 59 67 73 81 87 94 97 97 101 104 103 100 99 97 93 92 94 96 97 99 99 98 97 97 95 93 93 93 89 82 80 75 69 64 59 57 59 60 63 58 53 51
38 44 53 61 67 75 83 91 93 94 91 91 94 95 94 92 89 88 83 82 84 84 82 82 81 82 80 79 76 71 68 66 64 62 56 56 58 57 56 55 54 55 51
Wind_Direction
252 259 270 281 282 304 301 304 324 325 344 337 340 345 345 357 9 12 9 10 6 8 12 17 21 21 16 17 19 31 26 22 18 20 18 15 21 20 22 29 31 36 50
253 249 255 260 267 287 291 294 312 311 319 321 315 334 342 348 1 5 5 12 8 3 9 13 20 20 19 20 29 29 27 27 26 26 24 21 22 26 25 37 41 44 56
248 243 250 262 264 279 288 283 283 291 294 299 305 329 355 350 360 359 13 18 6 356 2 11 12 17 21 21 23 24 35 35 32 32 29 28 25 27 28 41 50 53 56
246 245 250 260 268 271 276 272 280 288 285 280 298 319 350 348 342 336 356 24 1 357 2 10 15 13 20 21 20 15 35 35 34 33 33 32 31 30 32 36 57 60 68
237 240 248 258 264 270 259 265 273 282 284 265 275 326 346 337 335 333 334 6 360 356 359 7 11 13 11 19 17 18 29 30 36 35 35 38 37 33 35 35 50 59 72
242 234 245 257 255 256 265 271 264 271 278 266 277 309 316 321 343 323 326 346 359 358 347 360 8 11 10 13 16 19 17 25 35 39 41 38 39 39 37 41 39 65 74
243 238 244 252 244 255 262 262 256 262 271 280 276 286 309 304 317 319 308 301 332 336 340 358 9 0 6 8 10 13 17 22 27 30 29 35 36 38 38 41 43 45 85
241 245 248 250 251 252 254 256 257 259 267 276 278 284 294 311 306 301 293 282 315 322 329 347 353 353 4 7 9 10 14 16 22 25 24 23 35 36 36 39 39 42 50
237 239 238 240 240 244 247 249 256 254 254 262 275 288 295 280 275 320 278 306 303 311 292 315 321 346 351 358 1 4 5 8 14 18 17 18 26 29 37 33 38 35 38
232 234 236 235 234 239 243 245 247 247 245 251 266 274 271 294 200 214 275 274 305 292 296 305 307 322 337 354 355 357 1 4 4 12 13 9 14 21 26 30 32 39 31
234 233 231 236 239 234 240 244 241 240 236 242 249 256 245 206 225 238 238 274 281 288 273 297 292 302 325 350 347 347 352 360 9 1 12 10 9 18 16 19 22 30 41
235 233 235 241 239 237 240 238 243 240 237 233 233 250 258 252 220 233 265 265 269 282 280 286 278 292 305 328 346 344 347 352 359 1 358 11 4 10 11 16 8 17 42
232 234 233 230 228 239 245 246 247 241 242 236 240 222 197 229 225 247 230 243 266 268 270 287 274 283 287 319 339 353 343 349 348 349 353 351 8 2 358 357 3 9 27
233 233 230 229 231 236 239 238 236 239 239 241 238 232 232 241 243 236 241 248 259 271 271 275 270 272 285 297 321 341 336 338 344 342 343 340 348 356 353 348 350 0 6
232 237 235 234 234 231 232 235 232 237 238 238 236 240 246 249 248 243 249 257 259 268 269 271 271 276 282 286 296 299 321 324 327 329 329 332 332 337 345 337 342 345 355
227 228 236 236 236 233 231 232 236 234 244 251 248 237 245 246 248 248 248 257 260 265 269 269 266 274 280 284 290 288 294 311 315 316 324 320 320 320 322 321 335 333 338
230 232 232 230 236 239 237 239 237 235 244 253 250 241 241 243 244 246 250 253 255 257 261 261 265 275 271 276 278 277 287 299 307 309 315 316 313 310 314 293 310 308 326
232 234 236 237 236 234 236 236 238 242 243 247 244 242 242 245 245 242 242 245 252 257 259 262 265 270 273 267 270 280 286 296 298 303 307 316 307 303 299 285 288 295 307
232 235 238 239 239 238 237 236 238 238 244 244 242 244 247 246 248 249 246 248 250 255 259 263 262 266 270 270 276 281 286 291 292 296 296 303 306 297 296 282 266 268 275
238 237 236 237 239 240 241 241 240 237 238 240 242 246 247 248 250 248 249 251 252 254 257 262 265 269 272 273 276 279 282 285 287 288 294 294 297 291 287 289 272 261 262
244 240 239 239 238 238 238 240 241 241 238 240 242 246 249 249 251 252 249 251 255 258 261 261 264 269 272 273 274 276 279 282 283 285 291 289 285 287 281 281 282 258 256
249 245 242 240 239 238 239 240 242 243 244 243 242 245 249 252 252 254 255 256 257 258 261 263 265 267 271 273 275 275 276 278 279 280 282 284 280 281 281 274 271 267 260
250 249 245 241 241 239 238 237 238 239 242 244 246 246 246 249 251 253 256 257 258 260 262 264 266 268 270 272 274 276 277 278 278 277 272 274 275 274 274 272 269 263 260
250 247 245 242 239 238 237 237 236 235 235 239 242 243 245 245 246 249 253 255 258 260 263 264 266 269 269 271 273 275 276 277 279 278 278 273 268 265 259 262 266 262 255
250 244 242 242 238 235 235 235 234 235 236 237 239 241 241 243 245 247 249 251 253 255 258 261 263 265 267 270 271 273 276 277 277 277 272 265 256 254 250 252 257 260 259
257 250 244 238 234 232 231 233 232 233 233 235 236 238 240 242 244 245 247 251 254 257 259 261 264 265 268 270 272 272 272 273 272 269 265 255 248 242 244 247 248 252 257
Height
11012 11015 11017 11016 11015 11016 11016 11015 11015 11014 11013 11012 11009 11006 11004 11001 10996 10992 10987 10983 10977 10970 10964 10956 10950 10942 10932 10923 10911 10896 10881 10864 10846 10823 10797 10772 10750 10731 10711 10694 10682 10674 10671
11005 11007 11009 11009 11010 11010 11011 11012 11011 11011 11010 11008 11007 11005 11002 10999 10997 10992 10989 10985 10980 10974 10966 10958 10951 10945 10936 10929 10917 10903 10890 10875 10859 10837 10814 10789 10766 10749 10732 10713 10701 10691 10687
10996 10999 11000 11002 11003 11004 11006 11008 11007 11007 11005 11003 11002 11002 11000 10998 10996 10992 10989 10985 10980 10975 10968 10961 10954 10948 10940 10934 10924 10912 10899 10886 10871 10853 10832 10812 10789 10770 10756 10740 10725 10716 10712
10987 10988 10991 10994 10996 10999 11000 11002 11002 11002 11002 11000 10998 10999 10998 10995 10993 10989 10989 10983 10980 10977 10970 10963 10957 10951 10946 10939 10931 10921 10908 10895 10882 10868 10851 10833 10811 10792 10778 10770 10756 10749 10748
10976 10978 10981 10985 10989 10992 10993 10995 10996 10996 10998 10997 10995 10996 10995 10993 10989 10986 10986 10982 10980 10977 10971 10965 10959 10955 10948 10943 10936 10928 10918 10907 10894 10882 10868 10852 10835 10818 10802 10794 10788 10783 10782
10964 10967 10971 10975 10980 10984 10986 10989 10990 10990 10991 10991 10992 10991 10989 10987 10984 10983 10985 10983 10979 10977 10972 10967 10962 10956 10951 10944 10941 10934 10926 10917 10905 10894 10883 10872 10858 10841 10829 10816 10812 10809 10809
10945 10953 10958 10964 10966 10971 10978 10981 10982 10983 10984 10987 10987 10985 10983 10980 10979 10981 10982 10982 10981 10977 10972 10968 10962 10958 10954 10947 10944 10939 10932 10925 10916 10906 10897 10886 10877 10864 10848 10837 10830 10830 10828
10929 10936 10942 10947 10953 10960 10965 10969 10974 10976 10978 10981 10980 10979 10978 10974 10975 10975 10979 10978 10978 10976 10971 10967 10962 10959 10953 10949 10944 10942 10937 10931 10923 10915 10908 10898 10889 10879 10871 10860 10850 10843 10843
10912 10918 10922 10929 10937 10945 10950 10955 10961 10967 10972 10973 10975 10975 10974 10971 10971 10976 10977 10976 10976 10972 10967 10964 10961 10958 10953 10949 10946 10944 10940 10935 10930 10924 10917 10909 10899 10891 10882 10876 10866 10856 10850
10895 10900 10906 10914 10924 10931 10937 10942 10951 10957 10963 10964 10968 10971 10972 10968 10971 10979 10976 10971 10972 10969 10964 10960 10959 10957 10954 10947 10943 10942 10940 10938 10934 10930 10924 10918 10910 10900 10895 10888 10883 10871 10859
10878 10888 10895 10904 10913 10918 10925 10931 10938 10945 10950 10954 10958 10965 10964 10958 10961 10960 10953 10961 10963 10964 10960 10958 10955 10954 10955 10949 10940 10940 10939 10938 10936 10933 10929 10923 10918 10910 10901 10897 10893 10887 10875
10860 10870 10882 10892 10901 10904 10911 10919 10926 10931 10937 10940 10946 10954 10953 10950 10949 10956 10947 10950 10956 10959 10955 10951 10951 10950 10950 10950 10946 10937 10937 10936 10937 10937 10933 10929 10924 10919 10912 10904 10900 10895 10889
10841 10853 10865 10875 10881 10889 10896 10905 10912 10915 10922 10925 10934 10944 10942 10947 10948 10946 10942 10942 10945 10948 10945 10943 10945 10945 10946 10948 10947 10941 10935 10934 10934 10935 10936 10934 10928 10923 10919 10912 10906 10901 10899
10821 10835 10846 10854 10862 10872 10879 10888 10896 10901 10906 10910 10919 10927 10928 10933 10935 10934 10932 10933 10934 10937 10936 10936 10936 10937 10937 10943 10946 10939 10939 10933 10933 10932 10934 10934 10934 10927 10923 10918 10912 10907 10902
10803 10809 10822 10834 10842 10851 10861 10870 10878 10884 10889 10896 10902 10907 10910 10916 10924 10927 10927 10927 10926 10925 10924 10924 10927 10928 10929 10931 10938 10936 10933 10935 10932 10932 10931 10932 10930 10930 10925 10921 10917 10911 10908
10783 10787 10796 10807 10819 10830 10839 10852 10861 10866 10867 10875 10887 10886 10891 10896 10902 10906 10909 10910 10910 10911 10912 10912 10914 10917 10918 10922 10925 10928 10926 10927 10930 10929 10928 10928 10929 10928 10926 10921 10918 10915 10910
10760 10768 10776 10785 10795 10806 10818 10829 10842 10848 10851 10854 10863 10867 10872 10879 10884 10887 10890 10892 10894 10895 10898 10900 10901 10905 10906 10910 10913 10918 10917 10918 10922 10924 10925 10920 10922 10923 10923 10920 10917 10914 10912
10733 10740 10749 10760 10772 10781 10791 10803 10813 10822 10833 10841 10845 10849 10854 10856 10864 10868 10873 10874 10876 10877 10881 10886 10887 10892 10895 10896 10898 10901 10907 10910 10913 10916 10919 10915 10915 10916 10917 10916 10914 10911 10910
10707 10714 10721 10731 10742 10754 10766 10779 10788 10795 10803 10817 10826 10828 10831 10840 10844 10849 10853 10856 10860 10863 10865 10868 10874 10877 10881 10884 10888 10890 10895 10899 10900 10903 10907 10909 10908 10907 10908 10909 10908 10907 10906
10677 10683 10691 10701 10713 10724 10736 10748 10762 10771 10780 10789 10800 10806 10809 10816 10823 10829 10832 10835 10841 10846 10849 10852 10855 10859 10864 10867 10870 10875 10881 10886 10891 10890 10893 10897 10898 10896 10897 10899 10899 10899 10898
10646 10653 10662 10671 10681 10694 10706 10717 10729 10740 10752 10760 10771 10777 10782 10791 10797 10805 10812 10817 10822 10827 10833 10836 10835 10837 10843 10846 10849 10856 10866 10871 10877 10879 10879 10882 10885 10885 10886 10886 10888 10888 10888
10607 10615 10625 10635 10647 10661 10674 10687 10700 10709 10720 10730 10742 10751 10755 10762 10771 10778 10787 10793 10799 10804 10808 10814 10815 10819 10819 10823 10828 10836 10844 10854 10860 10863 10867 10868 10871 10872 10873 10875 10875 10876 10876
10569 10576 10587 10598 10608 10624 10640 10654 10668 10681 10691 10701 10711 10722 10730 10739 10748 10755 10761 10766 10773 10779 10786 10788 10793 10796 10800 10802 10807 10811 10821 10830 10838 10844 10847 10848 10852 10856 10857 10860 10861 10862 10862
10535 10539 10546 10557 10570 10585 10601 10618 10635 10649 10662 10673 10684 10695 10704 10714 10724 10730 10737 10745 10752 10757 10761 10768 10771 10775 10778 10782 10787 10792 10799 10807 10812 10817 10822 10825 10827 10829 10838 10841 10844 10844 10845
10512 10514 10519 10528 10539 10553 10570 10585 10602 10618 10634 10648 10657 10668 10679 10690 10701 10709 10717 10725 10732 10737 10742 10749 10753 10756 10760 10760 10769 10776 10778 10783 10787 10792 10797 10800 10805 10805 10813 10819 10823 10825 10827
10495 10496 10499 10505 10515 10528 10543 10558 10573 10589 10606 10620 10632 10643 10654 10666 10678 10687 10696 10704 10710 10716 10723 10728 10733 10738 10740 10741 10749 10755 10759 10762 10766 10771 10777 10779 10783 10787 10789 10796 10804 10806 10810